Location: New Frontier Mobile Home Park
(32.8448°N, 116.9675°W)
Time: 23:14:19
(UTC+00:00)

Cosmos 2322 Rocket - Pass Details

Date: 14 July 2020
Orbit: 832 x 851 km, 71.0° (Epoch: 05 August)

Event Time Altitude Azimuth Distance (km) Brightness Sun altitude
Rises 11:17:08 0° 350° (N) 3,403 5.8 -17.1°
Reaches altitude 10° 11:19:50 10° 360° (N) 2,468 5.2 -16.7°
Maximum altitude 11:24:54 33° 63° (ENE) 1,400 4.1 -15.9°
Drops below altitude 10° 11:29:57 10° 126° (SE) 2,467 4.8 -15.0°
Sets 11:32:38 0° 136° (SE) 3,401 5.4 -14.6°
